User: anonymous   Login
Location: NJAA Observatory
(40.6819°N, 74.8979°W)
Time: 19:00:57
(UTC-05:00)
Language:

Meteor 2-9 Rocket - Orbit

View from above orbital plane
View from above orbital plane
View from above satellite
View from above satellite

Ground track
Ground track

The orbit data is extracted from the following two-line orbital elements,

1 13719U 82116B   15064.24402757  .00000133  00000-0  61612-4 0  9993
2 13719 081.2520 098.2617 0071292 213.6535 269.3825 14.14523287662321
Epoch (UTC): 05 March 2015 05:51:23
Eccentricity: 0.0071292
inclination: 81.2520°
perigee height: 792 km
apogee height: 895 km
right ascension of ascending node: 98.2617°
argument of perigee: 213.6535°
revolutions per day: 14.14523287
mean anomaly at epoch: 269.3825°
orbit number at epoch: 66232

The dashed part of the orbit path shows where the satellite is in the earth's shadow,  

DLR